sat.trackr.live / text

‹ back to catalog

STARLINK-37128

NORAD 68385 · 2026-063F

PAYLOAD ACTIVE UNKNOWN

§ Identity

Operator
Country
US
Launch date
2026-03-26
Launch site
AFWTR
Launch vehicle
Mass (kg)
RCS (m²)

Purposes: comms

External: N2YO · Heavens-Above · Gunter

§ Orbital elements

Epoch: 2026-05-24T23:10:59.362176Z

Period
93.91 min
Inclination
97.2852°
Eccentricity
0.0001334
Mean motion
15.33445979 rev/d
Perigee alt
464.6 km
Apogee alt
466.5 km
Semi-major
6,843.7 km
B*
4.7505e-4
RAAN
287.5123°
Arg perigee
93.3997°
Mean anomaly
266.7399°
Rev number
958

§ Raw data

STARLINK-371281 68385U 26063F   26144.96596484  .00015293  00000+0  47505-3 0  99982 68385  97.2852 287.5123 0001334  93.3997 266.7399 15.33445979  9588

JSON: /api/v1/satellites/68385 · /tle

For live sub-satellite position, see the globe view (requires WebGL).

§ Visibility from observer

Set your observer location to see the next 7 days of passes ≥ 10°. The values pass through the URL so the page stays shareable.

No JS? Fill the form by hand. The geolocation button needs JavaScript.